Showing default

OPS 6026 (DMSP 4A F1), 2418

Orbit data source: Space-Track

OPS 6026 (DMSP 4A F1), 2418 is a payload satellite owned by USAF SSD (US) in SSO that was launched on Fri, 16 Sep 1966 UTC via a THOR BURNER 2 launch vehicle from the Air Force Western Test Range (AFWTR). Payload-class satellites include a variety of spacecraft equipped with specific instruments for various scientific and technological missions. These include communications satellites like Starlink; space stations such as the ISS; scientific satellites like the Hubble; Earth observation satellites from companies like Planet Labs, Umbra, and HawkEye 360; GPS; miniature CubeSats for education and research; and military/defense satellites.

Loading next visibility...
Identifier
2418, 1966-082A
Orbit
SSO
Country
Flag of USUS
Related business
Manufacturer
RCA/East Windsor
Mission
Non-operational Defense Weather
Bus & Motor
DMSP BLOCK 4A, Unknown motor
Mass
79 kg wet, 79 kg dry
Launch date (UTC)
1966-09-16 (59 years ago)
Launch vehicle
THOR BURNER 2
Launch site
Air Force Western Test Range (AFWTR)
Object type
Payload
Rocket body
Debris
Shape & HBR
Oct Cyl, 0.4 m
Radar Cross Section
0.655 m², Medium (>0.1 m² and < 1m²)

Expand to show TLE details & history
Last TLE update: 12 hours ago

TLE from 12 hours ago
0 OPS 6026 (DMSP 4A F1)
1 02418U 66082A   25261.00763634  .00000398  00000-0  12051-3 0  9994
2 02418  98.3061  55.0914 0116747 128.4171 232.7571 14.43623490 73012
Epoch: 2025-09-18T00:10Z
TLE epoch observation values (Epoch: 2025-09-18T00:10:59.779Z)
Latitude
-0.00006°
Longitude
55.16692°
Altitude
800.471 km
Speed
7.427 km/s
True Right ascension
03h 40m 21s
True Declination
0° 00' 00"
Sunlit
Object was in full shadow at epoch
Visualization orbit readout
Latitude
Unknown
Longitude
Unknown
Altitude
Unknown
Speed
Unknown
Apparent Right ascension
Unknown
Apparent Declination
Unknown
Sunlit
N/A
Visualization observer readout
Local Sidereal Time
04:46:42
Azimuth
Unknown
Elevation
Unknown
Doppler factor
Unknown
Orbital elements
Apogee altitude
826.804 km
Perigee altitude
660.514 km
Semi-major axis
7,121.796 km
Eccentricity
0.01167
Inclination
98.3061°
RAAN
55.0914°
Arg. of periapsis
128.4171°
True anomaly
231.70148°
Mean anomaly
232.7571°
Eccentric anomaly
232.22835°
Mean motion
3.61126 °/min
Orbital period
99.69 mins
BSTAR
0.00012051
Loading maneuver chart data...
Computing Atmospheric mass density...
Loading historical data...
Loading historical data...
Loading historical data...
Loading historical data...
Loading historical data...
Loading historical data...
Loading historical data...
Other satellites on launch #82 in the year 1966 (1966-09-16 UTC)

Documentation

Showing up to 5 results
|